Location: Bennemühlen
(52.5740°N, 9.7135°E)
Time: 20:47:41
(UTC+00:00)

Tiros 1 despin weight - Pass Details

Date: 25 February 2026
Orbit: 556 x 593 km, 48.2° (Epoch: 8 March)

Event Time Altitude Azimuth Distance (km) Brightness Sun altitude
Rises 14:04:07 0° 257° (WSW) 2,750 ? 20.7°
Reaches altitude 10° 14:06:26 10° 252° (WSW) 1,849 ? 20.4°
Maximum altitude 14:10:29 46° 179° (S) 750 ? 20.0°
Drops below altitude 10° 14:14:30 10° 105° (ESE) 1,839 ? 19.6°
Sets 14:16:48 0° 100° (E) 2,732 ? 19.4°
